Tracking 30743 objects as of 20-Jun-2025
HD Live streaming from Space Station
objects crossing your sky now

STARLINK-6222

Track STARLINK-6222 now!
10-day predictions
STARLINK-6222 is classified as:


NORAD ID: 56481
Int'l Code: 2023-064AK
Perigee: 577.3 km
Apogee: 580.8 km
Inclination: 70.0 °
Period: 96.1 minutes
Semi major axis: 6950 km
RCS: Unknown
Launch date: May 10, 2023
Source: United States (US)
Launch site: AIR FORCE WESTERN TEST RANGE (AFWTR)
Your satellite tracking list
Your tracking list is empty




NASA's NSSDC Master Catalog

Two Line Element Set (TLE):
1 56481U 23064AK  25170.13319200 -.00007803  00000-0 -64626-3 0  9990
2 56481  70.0003  68.8745 0002488 269.9845  90.1029 14.98367934116620
Source of the keplerian elements: AFSPC